Weather History for Rome, NY

Change the Weather History Date:

Tuesday, March 26, 2013

  Actual Average Record
Temperature  
Mean Temperature 38 °F -  
Max Temperature 46 °F 51 °F 75 °F (1986)
Min Temperature 30 °F 29 °F 12 °F (2014)
Degree Days  
Heating Degree Days 28    
Moisture  
Dew Point 24 °F    
Average Humidity 62    
Maximum Humidity 82    
Minimum Humidity 35    
Precipitation  
Precipitation 0.00 in - - ()
Sea Level Pressure  
Sea Level Pressure 29.79 in    
Wind  
Wind Speed 5 mph (WNW)    
Max Wind Speed 13 mph    
Max Gust Speed 20 mph    
Visibility 9 miles    
Events Snow    
Averages and records for this station are not official NWS values.
T = Trace of Precipitation, MM = Missing Value Source: NWS Daily Summary

Daily Weather History Graph

Daily Weather History Graph

Search for Another Location

Airport:

Trip Planner

Search our weather history database for the weather conditions in past years. The results will help you decide how hot, cold, wet, or windy it might be!

Date:

Astronomy

Mar. 26, 2013 Rise Set
Actual Time 6:53 AM EDT 7:21 PM EDT
Civil Twilight 6:25 AM EDT 7:49 PM EDT
Nautical Twilight 5:51 AM EDT 8:23 PM EDT
Astronomical Twilight 5:16 AM EDT 8:58 PM EDT
Moon 6:55 PM EDT 6:09 AM EDT
Length of Visible Light 13h 24m
Length of Day
12h 27m
Waxing Gibbous, 99% of the Moon is Illuminated
Mar 26
Waxing Gibbous
Mar 27
Full
Apr 3
Last Quarter
Apr 10
New
Apr 18
First Quarter

Hourly Weather History & Observations

Time (EDT) Temp. Windchill Dew Point Humidity Pressure Visibility Wind Dir Wind Speed Gust Speed Precip Events Conditions
12:53 AM 37.0 °F 34.5 °F 25.0 °F 62% 29.67 in 10.0 mi WSW 3.5 mph - N/A   Overcast
1:53 AM 36.0 °F - 26.1 °F 67% 29.68 in 10.0 mi Calm Calm - N/A   Overcast
2:53 AM 35.1 °F 31.0 °F 26.1 °F 70% 29.68 in 10.0 mi Variable 4.6 mph - N/A   Overcast
3:53 AM 34.0 °F 31.0 °F 26.1 °F 73% 29.69 in 10.0 mi West 3.5 mph - N/A   Overcast
4:53 AM 33.1 °F 30.0 °F 27.0 °F 78% 29.70 in 10.0 mi SW 3.5 mph - N/A   Overcast
5:53 AM 33.1 °F 27.7 °F 26.1 °F 75% 29.73 in 10.0 mi West 5.8 mph - N/A   Overcast
6:53 AM 32.0 °F 27.5 °F 27.0 °F 82% 29.74 in 10.0 mi WNW 4.6 mph - N/A   Overcast
7:53 AM 32.0 °F 28.7 °F 27.0 °F 82% 29.76 in 10.0 mi NNW 3.5 mph - N/A   Overcast
8:53 AM 33.1 °F 27.7 °F 27.0 °F 78% 29.78 in 9.0 mi WSW 5.8 mph - 0.00 in   Overcast
9:49 AM 33.8 °F 28.6 °F 28.4 °F 81% 29.78 in 3.0 mi WNW 5.8 mph - 0.00 in Snow Light Snow
9:53 AM 33.1 °F 27.7 °F 28.0 °F 82% 29.79 in 3.0 mi West 5.8 mph - 0.00 in Snow Light Snow
10:53 AM 37.0 °F 33.3 °F 28.0 °F 70% 29.80 in 10.0 mi WNW 4.6 mph - 0.00 in   Scattered Clouds
11:53 AM 39.9 °F 37.8 °F 26.1 °F 58% 29.80 in 10.0 mi NW 3.5 mph - N/A   Clear
12:53 PM 42.1 °F 37.1 °F 24.1 °F 49% 29.79 in 10.0 mi WNW 8.1 mph - N/A   Scattered Clouds
1:53 PM 43.0 °F 38.8 °F 21.0 °F 42% 29.79 in 10.0 mi NW 6.9 mph - N/A   Scattered Clouds
2:53 PM 45.0 °F 39.3 °F 19.9 °F 37% 29.79 in 10.0 mi North 11.5 mph - N/A   Scattered Clouds
3:53 PM 45.0 °F 39.7 °F 19.0 °F 36% 29.79 in 10.0 mi NNW 10.4 mph - N/A   Clear
4:53 PM 45.0 °F 38.9 °F 21.0 °F 39% 29.80 in 10.0 mi NW 12.7 mph 19.6 mph N/A   Clear
5:53 PM 43.0 °F 36.8 °F 17.1 °F 35% 29.82 in 10.0 mi North 11.5 mph - N/A   Clear
6:53 PM 39.9 °F 33.9 °F 18.0 °F 41% 29.85 in 10.0 mi NNW 9.2 mph - N/A   Unknown
7:53 PM 37.9 °F 34.4 °F 17.1 °F 43% 29.86 in 10.0 mi NNW 4.6 mph - N/A   Clear
8:53 PM 33.1 °F 26.9 °F 19.9 °F 59% 29.88 in 10.0 mi NW 6.9 mph - N/A   Clear
9:53 PM 30.9 °F 23.5 °F 24.1 °F 76% 29.91 in 10.0 mi NW 8.1 mph - N/A   Clear
10:53 PM 32.0 °F 28.7 °F 24.1 °F 73% 29.92 in 10.0 mi WSW 3.5 mph - N/A   Partly Cloudy
11:53 PM 33.1 °F 30.0 °F 25.0 °F 72% 29.91 in 10.0 mi WSW 3.5 mph - N/A   Overcast